• In Portugal
  • List of Countries
  • For 7 days
  • Water Temperature
  • Satellite Maps
  • Weather Map
  • Weather Widgets
  • user-avatar
    Login

    Hourly Weather Chitole

    Today, 23 January, Tuesday

    Time Temperature Precipitation Wind Pressure Humidity
    00:00 +23°C° 0.6 mm 2 mps 670 mmHg 83%
    01:00 +21°C° 0.6 mm 2 mps 670 mmHg 87%
    02:00 +21°C° 0.9 mm 2 mps 669 mmHg 88%
    03:00 +20°C° 0.9 mm 2 mps 669 mmHg 90%
    04:00 +20°C° 0.9 mm 2 mps 669 mmHg 92%
    05:00 +21°C° 0.9 mm 2 mps 670 mmHg 90%
    06:00 +21°C° 0.9 mm 2 mps 670 mmHg 88%
    07:00 +23°C° 0.9 mm 2 mps 670 mmHg 86%
    08:00 +24°C° 0.3 mm 2 mps 671 mmHg 78%
    09:00 +26°C° 0.3 mm 3 mps 671 mmHg 70%
    10:00 +28°C° 0.3 mm 3 mps 671 mmHg 63%
    11:00 +29°C° 0.8 mm 2 mps 671 mmHg 59%
    12:00 +30°C° 0.8 mm 2 mps 670 mmHg 55%
    13:00 +31°C° 0.8 mm 2 mps 670 mmHg 52%
    14:00 +30°C° 0.4 mm 2 mps 670 mmHg 52%
    15:00 +30°C° 0.4 mm 1 mps 669 mmHg 52%
    16:00 +30°C° 0.4 mm 1 mps 669 mmHg 52%
    17:00 +28°C° 1.1 mm 2 mps 669 mmHg 61%
    18:00 +26°C° 1.1 mm 2 mps 669 mmHg 70%
    19:00 +24°C° 1.1 mm 3 mps 669 mmHg 79%
    20:00 +22°C° 1 mm 3 mps 669 mmHg 81%
    21:00 +22°C° 1 mm 3 mps 670 mmHg 84%
    22:00 +21°C° 1 mm 3 mps 670 mmHg 86%
    23:00 +21°C° 0 mm 3 mps 670 mmHg 87%

    Tomorrow, 24 January, Wednesday

    Time Temperature Precipitation Wind Pressure Humidity
    00:00 +21°C° 0 mm 3 mps 670 mmHg 89%
    01:00 +20°C° 0 mm 3 mps 670 mmHg 90%
    02:00 +20°C° 0 mm 3 mps 669 mmHg 92%
    03:00 +20°C° 0 mm 3 mps 669 mmHg 93%
    04:00 +19°C° 0 mm 2 mps 669 mmHg 94%
    05:00 +20°C° 0 mm 3 mps 670 mmHg 92%
    06:00 +21°C° 0 mm 3 mps 670 mmHg 89%
    07:00 +21°C° 0 mm 4 mps 671 mmHg 86%
    08:00 +24°C° 0.1 mm 3 mps 671 mmHg 78%
    09:00 +26°C° 0.1 mm 3 mps 671 mmHg 70%
    10:00 +28°C° 0.1 mm 3 mps 671 mmHg 62%
    11:00 +29°C° 0.8 mm 3 mps 671 mmHg 59%
    12:00 +29°C° 0.8 mm 2 mps 670 mmHg 56%
    13:00 +30°C° 0.8 mm 2 mps 670 mmHg 53%
    14:00 +30°C° 0.2 mm 2 mps 670 mmHg 53%
    15:00 +30°C° 0.2 mm 2 mps 669 mmHg 53%
    16:00 +30°C° 0.2 mm 2 mps 669 mmHg 53%
    17:00 +28°C° 0.8 mm 2 mps 669 mmHg 61%
    18:00 +26°C° 0.8 mm 2 mps 669 mmHg 69%
    19:00 +24°C° 0.8 mm 2 mps 669 mmHg 77%
    20:00 +24°C° 0.6 mm 2 mps 670 mmHg 79%
    21:00 +23°C° 0.6 mm 2 mps 670 mmHg 81%
    22:00 +23°C° 0.6 mm 2 mps 670 mmHg 83%
    23:00 +21°C° 0.5 mm 2 mps 670 mmHg 85%

    Day after tomorrow, 25 January, Thursday

    Time Temperature Precipitation Wind Pressure Humidity
    00:00 +21°C° 0.5 mm 2 mps 670 mmHg 87%
    01:00 +20°C° 0.5 mm 3 mps 669 mmHg 90%
    02:00 +20°C° 0.2 mm 2 mps 669 mmHg 91%
    03:00 +20°C° 0.2 mm 2 mps 669 mmHg 92%
    04:00 +19°C° 0.2 mm 2 mps 669 mmHg 93%
    05:00 +20°C° 0.2 mm 2 mps 670 mmHg 90%
    06:00 +21°C° 0.2 mm 2 mps 670 mmHg 87%
    07:00 +23°C° 0.2 mm 2 mps 671 mmHg 83%
    08:00 +25°C° 0 mm 2 mps 671 mmHg 74%
    09:00 +27°C° 0 mm 2 mps 672 mmHg 65%
    10:00 +29°C° 0 mm 3 mps 672 mmHg 56%
    11:00 +30°C° 0 mm 2 mps 671 mmHg 52%
    12:00 +31°C° 0 mm 2 mps 671 mmHg 47%
    13:00 +32°C° 0 mm 2 mps 670 mmHg 43%
    14:00 +32°C° 0 mm 2 mps 669 mmHg 44%
    15:00 +32°C° 0 mm 1 mps 669 mmHg 45%
    16:00 +31°C° 0 mm 1 mps 669 mmHg 46%
    17:00 +30°C° 0 mm 1 mps 669 mmHg 50%
    18:00 +28°C° 0 mm 1 mps 669 mmHg 54%
    19:00 +27°C° 0 mm 1 mps 669 mmHg 59%
    20:00 +26°C° 0 mm 1 mps 669 mmHg 61%
    21:00 +26°C° 0 mm 1 mps 670 mmHg 64%
    22:00 +25°C° 0 mm 1 mps 670 mmHg 67%
    23:00 +25°C° 0 mm 1 mps 670 mmHg 68%

    26 January, Friday

    Time Temperature Precipitation Wind Pressure Humidity
    00:00 +24°C° 0 mm 2 mps 669 mmHg 70%
    01:00 +24°C° 0 mm 2 mps 669 mmHg 71%
    02:00 +23°C° 0 mm 2 mps 669 mmHg 74%
    03:00 +23°C° 0 mm 2 mps 669 mmHg 77%
    04:00 +21°C° 0 mm 2 mps 669 mmHg 79%
    05:00 +23°C° 0.1 mm 2 mps 669 mmHg 78%
    06:00 +22°C° 0.1 mm 3 mps 670 mmHg 77%
    07:00 +24°C° 0.1 mm 3 mps 671 mmHg 76%
    08:00 +26°C° 0.1 mm 3 mps 671 mmHg 69%
    09:00 +28°C° 0.1 mm 3 mps 672 mmHg 62%
    10:00 +30°C° 0.1 mm 3 mps 672 mmHg 55%
    11:00 +31°C° 0.5 mm 2 mps 671 mmHg 51%
    12:00 +32°C° 0.5 mm 2 mps 671 mmHg 47%
    13:00 +33°C° 0.5 mm 1 mps 670 mmHg 43%
    14:00 +33°C° 0 mm 1 mps 670 mmHg 43%
    15:00 +30°C° 0 mm 0 mps 669 mmHg 43%
    16:00 +30°C° 0 mm 0 mps 669 mmHg 43%
    17:00 +28°C° 0 mm 0 mps 669 mmHg 48%
    18:00 +27°C° 0 mm 0 mps 669 mmHg 52%
    19:00 +25°C° 0 mm 0 mps 669 mmHg 57%
    20:00 +27°C° 0.1 mm 1 mps 669 mmHg 60%
    21:00 +26°C° 0.1 mm 1 mps 670 mmHg 62%
    22:00 +25°C° 0.1 mm 2 mps 670 mmHg 64%
    23:00 +25°C° 0.7 mm 2 mps 670 mmHg 71%

    27 January, Saturday

    Time Temperature Precipitation Wind Pressure Humidity
    00:00 +24°C° 0.7 mm 2 mps 669 mmHg 77%
    01:00 +22°C° 0.7 mm 3 mps 669 mmHg 83%
    02:00 +23°C° 0.1 mm 2 mps 669 mmHg 85%
    03:00 +21°C° 0.1 mm 2 mps 669 mmHg 87%
    04:00 +21°C° 0.1 mm 2 mps 669 mmHg 89%
    05:00 +23°C° 0.1 mm 2 mps 669 mmHg 87%
    06:00 +22°C° 0.1 mm 3 mps 670 mmHg 85%
    07:00 +24°C° 0.1 mm 3 mps 671 mmHg 84%
    08:00 +25°C° 1.1 mm 3 mps 671 mmHg 75%
    09:00 +27°C° 1.1 mm 2 mps 671 mmHg 67%
    10:00 +29°C° 1.1 mm 2 mps 671 mmHg 59%
    11:00 +30°C° 0.3 mm 2 mps 671 mmHg 55%
    12:00 +31°C° 0.3 mm 1 mps 671 mmHg 51%
    13:00 +32°C° 0.3 mm 1 mps 670 mmHg 46%
    14:00 +32°C° 0.2 mm 1 mps 670 mmHg 48%
    15:00 +29°C° 0.2 mm 0 mps 669 mmHg 50%
    16:00 +28°C° 0.2 mm 0 mps 669 mmHg 52%
    17:00 +29°C° 0.1 mm 1 mps 669 mmHg 57%
    18:00 +28°C° 0.1 mm 1 mps 669 mmHg 62%
    19:00 +26°C° 0.1 mm 2 mps 669 mmHg 67%
    20:00 +25°C° 0.8 mm 2 mps 669 mmHg 72%
    21:00 +25°C° 0.8 mm 2 mps 670 mmHg 77%
    22:00 +24°C° 0.8 mm 2 mps 670 mmHg 82%
    23:00 +23°C° 0.4 mm 2 mps 669 mmHg 83%

    28 January, Sunday

    Time Temperature Precipitation Wind Pressure Humidity
    00:00 +23°C° 0.4 mm 1 mps 669 mmHg 83%
    01:00 +23°C° 0.4 mm 1 mps 668 mmHg 84%
    02:00 +22°C° 0 mm 1 mps 668 mmHg 85%
    03:00 +22°C° 0 mm 1 mps 668 mmHg 86%
    04:00 +22°C° 0 mm 1 mps 668 mmHg 87%
    05:00 +23°C° 0 mm 1 mps 669 mmHg 85%
    06:00 +23°C° 0 mm 1 mps 670 mmHg 82%
    07:00 +24°C° 0 mm 1 mps 670 mmHg 80%
    08:00 +25°C° 0 mm 1 mps 670 mmHg 72%
    09:00 +27°C° 0 mm 2 mps 670 mmHg 63%
    10:00 +29°C° 0 mm 2 mps 671 mmHg 55%
    11:00 +30°C° 0 mm 2 mps 670 mmHg 50%
    12:00 +31°C° 0 mm 2 mps 669 mmHg 46%
    13:00 +31°C° 0 mm 2 mps 669 mmHg 41%
    14:00 +31°C° 0 mm 2 mps 669 mmHg 42%
    15:00 +31°C° 0 mm 1 mps 668 mmHg 44%
    16:00 +31°C° 0 mm 1 mps 668 mmHg 45%
    17:00 +29°C° 0 mm 1 mps 668 mmHg 49%
    18:00 +28°C° 0 mm 1 mps 668 mmHg 53%
    19:00 +27°C° 0 mm 1 mps 669 mmHg 57%
    20:00 +26°C° 0 mm 1 mps 669 mmHg 60%
    21:00 +25°C° 0 mm 1 mps 669 mmHg 62%
    22:00 +25°C° 0 mm 1 mps 669 mmHg 65%
    23:00 +24°C° 0 mm 1 mps 669 mmHg 66%
    Show more